[[[{"header":{"parameterUnit":"kt","parameterCategory":2,"dx":1,"dy":1,"la1":30.253999710083008,"la2":30.299108505249023,"lo1":-89.0895004272461,"lo2":-89.04439544677734,"nx":28,"ny":28,"refTime":"2022-09-30T21:00:00:Z","depth":0,"parameterNumber":1,"parameterNumberName":"U-component_of_WINDS"},"data":[-1.0895,-1.106,-1.1073,-1.1268,-1.1313,-1.145,-1.1504,-1.1575,-1.1635,-1.1802,-1.19,-1.1933,-1.2001,-1.2124,-1.2234,-1.2247,-1.2295,-1.2342,-1.235,-1.212,-1.209,-1.2061,-1.2023,-1.2351,-1.2351,-1.2588,-1.2591,-1.2592,-1.0722,-1.0767,-1.0873,-1.0986,-1.1078,-1.1039,-1.1127,-1.1208,-1.1333,-1.1408,-1.1506,-1.1656,-1.1776,-1.1831,-1.195,-1.2031,-1.2023,-1.2063,-1.2061,-1.2073,-1.1826,-1.1785,-1.2068,-1.2068,-1.2067,-1.2067,-1.2067,-1.2067,-1.0411,-1.051,-1.0585,-1.0702,-1.0762,-1.0838,-1.0936,-1.0972,-1.1079,-1.1204,-1.12,-1.1344,-1.1425,-1.1578,-1.1633,-1.1747,-1.1706,-1.1757,-1.1771,-1.1785,-1.1799,-1.146,-1.1767,-1.1767,-1.1766,-1.1765,-1.1765,0,-1.019,-1.0194,-1.0297,-1.0405,-1.0491,-1.0577,-1.0659,-1.0719,-1.0737,-1.0825,-1.0954,-1.1032,-1.1186,-1.1313,-1.1429,-1.1478,-1.1454,-1.1451,-1.1487,-1.1495,-1.1484,-1.1496,-1.1097,-1.1445,-1.1442,-1.144,-1.1439,-1.1438,-0.9882,-0.9995,-1.0081,-1.0152,-1.02,-1.0316,-1.0388,-1.0394,-1.0472,-1.0575,-1.0664,-1.0788,-1.0889,-1.1097,-1.1145,-1.1262,-1.1253,-1.1384,-1.1272,-1.127,-1.1262,-1.1257,-1.127,-1.1409,-1.1413,-1.1416,-1.1418,0,-0.9708,-0.973,-0.991,-0.9985,-1.0008,-1.0127,-1.0193,-1.0293,-1.0319,-1.0462,-1.0496,-1.0539,-1.0668,-1.0694,-1.0848,-1.0858,-1.106,-1.1045,-1.1032,-1.1032,-1.1156,-1.1146,-1.1545,-1.1599,-1.1254,-1.1257,-1.126,0,-0.9458,-0.9606,-0.9631,-0.9734,-0.9899,-0.9902,-1.0067,-1.0106,-1.0175,-1.0288,-1.026,-1.0367,-1.0384,-1.0495,-1.0511,-1.0679,-1.0707,-1.0728,-1.0732,-1.0734,-1.0732,-1.0782,-1.0769,-1.0729,-1.0727,-1.0725,-1.0724,0,-0.9188,-0.9375,-0.9541,-0.9588,-0.9686,-0.9765,-0.981,-0.9889,-0.9961,-1.0058,-1.0106,-1.022,-1.0285,-1.0374,-1.0394,-1.0317,-1.06,-1.0498,-1.0622,-1.0622,-1.0689,-1.0686,-1.1026,-1.0721,-1.0721,-1.072,-1.0719,0,-0.8992,-0.9087,-0.9325,-0.9406,-0.9455,-0.9566,-0.9678,-0.9778,-0.9863,-0.988,-0.9957,-0.9945,-1.0092,-0.9989,-1.0193,-1.0087,-1.0153,-1.0184,-1.0194,-1.0215,-1.0101,-1.0296,-1.0612,-1.0649,-1.0225,-1.0221,-1.0217,0,-0.868,-0.8925,-0.893,-0.9157,-0.9275,-0.9237,-0.936,-0.9436,-0.9468,-0.9575,-0.961,-0.9734,-0.9662,-0.9705,-0.9802,-0.9847,-0.9984,-0.9828,-0.999,-0.9996,-0.9973,-1.0262,-1.0306,-1.0538,-1.0165,-1.017,-1.0174,0,-0.8442,-0.8558,-0.8599,-0.8653,-0.8752,-0.8852,-0.8992,-0.9113,-0.9184,-0.9272,-0.9394,-0.9565,-0.952,-0.9592,-0.9595,-0.9695,-0.9891,-0.9634,-0.9637,-0.9684,-1.0139,-1.018,-1.0219,-0.9872,-0.9878,-0.9883,-1.0133,0,-0.8148,-0.8274,-0.8382,-0.8503,-0.8582,-0.8725,-0.8752,-0.8833,-0.8826,-0.8858,-0.9036,-0.9108,-0.9237,-0.9286,-0.9283,-0.9501,-0.9471,-0.9422,-0.933,-0.9517,-0.9601,-0.9634,-0.9203,-0.92,-0.9198,-0.9196,0,0,-0.7848,-0.8028,-0.8031,-0.8167,-0.8235,-0.8196,-0.8347,-0.8409,-0.8538,-0.8588,-0.8534,-0.8789,-0.8852,-0.9067,-0.9127,-0.9178,-0.9221,-0.9156,-0.9426,-0.9452,-0.9476,-0.9564,-0.9599,-0.9192,-0.9191,-0.9191,-0.919,0,-0.7747,-0.7804,-0.7951,-0.8015,-0.8109,-0.8135,-0.817,-0.8259,-0.8287,-0.8459,-0.843,-0.854,-0.8745,-0.8816,-0.888,-0.9128,-0.9103,-0.9164,-0.9289,-0.9403,-0.9432,-0.9457,-0.955,-0.9582,-0.9185,-0.9185,-0.9185,0,-0.7522,-0.7584,-0.7657,-0.7808,-0.7871,-0.7994,-0.79,-0.8034,-0.8127,-0.8084,-0.8257,-0.8303,-0.8401,-0.8598,-0.8688,-0.8644,-0.8994,-0.8888,-0.8903,-0.8916,-0.9029,-0.9063,-0.9093,-0.8695,-0.8693,-0.8692,0,0,-0.7432,-0.7548,-0.7621,-0.7789,-0.783,-0.7871,-0.7939,-0.7941,-0.8027,-0.8062,-0.8121,-0.8208,-0.8327,-0.8406,-0.852,-0.8731,-0.8756,-0.8827,-0.885,-0.8869,-0.8892,-0.9009,-0.9043,-0.8685,-0.8685,-0.8684,0,0,-0.7392,-0.748,-0.7458,-0.7656,-0.7737,-0.7823,-0.7926,-0.7903,-0.8007,-0.7995,-0.8009,-0.8033,-0.8218,-0.8265,-0.8168,-0.8489,-0.8396,-0.842,-0.8452,-0.8482,-0.8505,-0.8493,-0.809,0,0,0,0,0,-0.7304,-0.7468,-0.7447,-0.7484,-0.7677,-0.7833,-0.7858,-0.7871,-0.7804,-0.7886,-0.7931,-0.7899,-0.8216,-0.813,-0.8169,-0.828,-0.8595,-0.8611,-0.8626,-0.8717,-0.8748,-0.8774,0,0,0,0,0,0,-0.7319,-0.7364,-0.7443,-0.7535,-0.7578,-0.7827,-0.7718,-0.7726,-0.7796,-0.7787,-0.7891,-0.7903,-0.7919,-0.8111,-0.8146,-0.8251,-0.8078,-0.8601,-0.8615,-0.8627,-0.8728,-0.8753,-0.8774,0,0,0,0,0,-0.733,-0.7367,-0.7672,-0.7533,-0.7571,-0.7627,-0.7712,-0.7718,-0.7773,-0.7845,-0.7855,-0.7776,-0.7922,-0.7952,-0.8132,-0.8235,-0.8054,-0.8067,-0.861,-0.8621,-0.863,-0.874,0,0,0,0,0,0,-0.7339,-0.7375,-0.768,-0.7692,-0.7471,-0.7613,-0.7635,-0.7711,-0.7826,-0.7838,-0.773,-0.7721,-0.7926,-0.7948,-0.7972,-0.8228,-0.8034,-0.8047,-0.8056,-0.8618,-0.8626,-0.8634,0,0,0,0,0,0,-0.7355,-0.7386,-0.7686,-0.7608,-0.7612,-0.7601,-0.7621,-0.7776,-0.7828,-0.7705,-0.7701,-0.7725,-0.7891,-0.7947,-0.7965,-0.8207,-0.8019,-0.8032,-0.804,-0.8046,-0.8625,-0.8631,0,0,0,0,0,0,-0.7368,-0.7394,-0.7605,-0.7608,-0.7611,-0.7748,-0.7739,-0.7937,-0.7757,-0.77,-0.7741,-0.7734,-0.7891,-0.791,-0.796,-0.8195,-0.8204,-0.8019,-0.8028,-0.8034,-0.8038,0,0,0,0,0,0,0,-0.7379,-0.7202,-0.7608,-0.7608,-0.761,-0.7805,-0.7808,-0.7811,-0.7755,-0.7749,-0.7743,-0.7737,-0.7947,-0.7961,-0.7975,-0.8185,0,0,-0.8018,-0.8024,0,0,0,0,0,0,0,0,-0.7191,-0.7199,-0.7608,-0.7611,-0.7613,-0.7805,-0.7808,-0.7811,-0.7754,-0.7749,-0.7744,-0.7739,-0.7951,-0.7962,-0.7973,0,0,0,0,0,0,0,0,0,0,0,0,0,0,0,-0.7608,-0.761,0,-0.7805,-0.7808,-0.781,-0.7753,-0.7749,-0.7745,-0.7741,-0.7954,-0.7963,-0.7972,0,0,0,0,0,0,0,0,0,0,0,0,0,0,0,0,0,0,0,0,0,0,0,0,0,0,0,0,0,0,0,0,0,0,0,0,0,0,0,0,0,0,0,0,0,0,0,0,0,0,0,0,0,0,0,0,0,0,0,0,0,0,0,0,0,0,0,0,0]}],[{"header":{"parameterUnit":"kt","parameterCategory":2,"dx":1,"dy":1,"la1":30.253999710083008,"la2":30.299108505249023,"lo1":-89.0895004272461,"lo2":-89.04439544677734,"nx":28,"ny":28,"refTime":"2022-09-30T21:00:00:Z","depth":0,"parameterNumber":2,"parameterNumberName":"V-component_of_WINDS"},"data":[-9.531,-9.5552,-9.5558,-9.5837,-9.5889,-9.6079,-9.6149,-9.6238,-9.6311,-9.6536,-9.6666,-9.6694,-9.6766,-9.692,-9.7059,-9.7068,-9.7126,-9.7208,-9.7204,-9.6835,-9.6784,-9.6736,-9.668,-9.7221,-9.7222,-9.7585,-9.7589,-9.7591,-9.5038,-9.5093,-9.5242,-9.5391,-9.5518,-9.5443,-9.5553,-9.5664,-9.5836,-9.5926,-9.6055,-9.6252,-9.6408,-9.6453,-9.6602,-9.6713,-9.6685,-9.6753,-9.6745,-9.6757,-9.6363,-9.6303,-9.6773,-9.6773,-9.6773,-9.6773,-9.6773,-9.6773,-9.4545,-9.469,-9.4783,-9.4945,-9.5021,-9.512,-9.5258,-9.5291,-9.5435,-9.5594,-9.5571,-9.5764,-9.5853,-9.6035,-9.6096,-9.6244,-9.6169,-9.6244,-9.6263,-9.6283,-9.6304,-9.5778,-9.627,-9.6268,-9.6267,-9.6266,-9.6265,0,-9.4185,-9.4181,-9.4324,-9.447,-9.4588,-9.4701,-9.4804,-9.489,-9.4877,-9.4997,-9.517,-9.527,-9.5466,-9.5627,-9.5767,-9.5815,-9.5746,-9.574,-9.5791,-9.5807,-9.5802,-9.5807,-9.5165,-9.5725,-9.5721,-9.5717,-9.5715,-9.5713,-9.3688,-9.3857,-9.3957,-9.4057,-9.4115,-9.4276,-9.4373,-9.435,-9.4453,-9.4575,-9.4703,-9.4865,-9.4993,-9.5267,-9.5299,-9.5444,-9.5412,-9.5626,-9.5433,-9.5441,-9.5416,-9.5406,-9.5422,-9.5664,-9.567,-9.5675,-9.5679,0,-9.3408,-9.3416,-9.3679,-9.376,-9.3785,-9.3963,-9.403,-9.4173,-9.4188,-9.4386,-9.443,-9.4453,-9.4622,-9.462,-9.4811,-9.4804,-9.5093,-9.5057,-9.5061,-9.5054,-9.5246,-9.5228,-9.5867,-9.5949,-9.5387,-9.5392,-9.5397,0,-9.2987,-9.3209,-9.3207,-9.336,-9.3605,-9.3576,-9.3818,-9.3855,-9.3932,-9.4088,-9.4011,-9.4158,-9.4131,-9.4278,-9.4269,-9.4504,-9.4539,-9.4548,-9.4543,-9.4556,-9.4555,-9.4609,-9.4583,-9.4524,-9.4521,-9.4518,-9.4516,0,-9.2547,-9.2807,-9.3053,-9.3113,-9.3222,-9.3338,-9.3388,-9.3474,-9.3568,-9.369,-9.375,-9.3894,-9.3972,-9.4083,-9.407,-9.394,-9.4357,-9.4175,-9.4366,-9.4367,-9.4459,-9.4454,-9.502,-9.4512,-9.4511,-9.451,-9.4508,0,-9.2208,-9.2335,-9.2692,-9.2779,-9.2848,-9.301,-9.315,-9.3289,-9.3385,-9.339,-9.3485,-9.3432,-9.3638,-9.3457,-9.3739,-9.3573,-9.3655,-9.3681,-9.3695,-9.3713,-9.3511,-9.3831,-9.4371,-9.4427,-9.373,-9.3723,-9.3718,0,-9.1703,-9.2065,-9.2043,-9.2382,-9.2549,-9.2451,-9.263,-9.2718,-9.2739,-9.2882,-9.2903,-9.3066,-9.2931,-9.2982,-9.3122,-9.3151,-9.3366,-9.3121,-9.3325,-9.3333,-9.3303,-9.38,-9.3881,-9.4253,-9.3634,-9.3643,-9.3649,0,-9.1312,-9.1443,-9.1505,-9.1572,-9.1685,-9.1823,-9.2029,-9.2185,-9.2281,-9.2388,-9.2559,-9.2787,-9.2694,-9.2778,-9.275,-9.2896,-9.3219,-9.2777,-9.2778,-9.2857,-9.3592,-9.3668,-9.3731,-9.3168,-9.3178,-9.3186,-9.3584,0,-9.0798,-9.098,-9.1148,-9.1299,-9.1406,-9.1618,-9.1617,-9.1729,-9.1691,-9.1709,-9.196,-9.203,-9.2187,-9.2257,-9.2222,-9.2557,-9.25,-9.2399,-9.2223,-9.2549,-9.268,-9.2733,-9.2028,-9.2023,-9.2019,-9.2015,0,0,-9.0313,-9.0573,-9.0542,-9.0741,-9.083,-9.0725,-9.0951,-9.1024,-9.1175,-9.1237,-9.1139,-9.1472,-9.1534,-9.1838,-9.1939,-9.2003,-9.2062,-9.1949,-9.2394,-9.2436,-9.2475,-9.2615,-9.2671,-9.2007,-9.2006,-9.2004,-9.2003,0,-9.0125,-9.0193,-9.0419,-9.0493,-9.0603,-9.061,-9.0665,-9.0754,-9.0775,-9.1021,-9.093,-9.108,-9.1346,-9.1424,-9.1498,-9.1912,-9.1834,-9.196,-9.2184,-9.235,-9.2398,-9.244,-9.2588,-9.2641,-9.1992,-9.1993,-9.1993,0,-8.974,-8.9807,-8.9915,-9.0112,-9.0182,-9.0356,-9.0171,-9.0362,-9.049,-9.0363,-9.0609,-9.0648,-9.0751,-9.1039,-9.1168,-9.1082,-9.1626,-9.1454,-9.1481,-9.1495,-9.1656,-9.1714,-9.1765,-9.1087,-9.1084,-9.1081,0,0,-8.9577,-8.9746,-8.9809,-9.0071,-9.0122,-9.0136,-9.0228,-9.0201,-9.0296,-9.0335,-9.0383,-9.0479,-9.0632,-9.0735,-9.0879,-9.1196,-9.1215,-9.1342,-9.1385,-9.142,-9.1453,-9.1623,-9.168,-9.1069,-9.1069,-9.1068,0,0,-8.9499,-8.9583,-8.9529,-8.9833,-8.9928,-9.0006,-9.0166,-9.0101,-9.0231,-9.0206,-9.0166,-9.019,-9.0459,-9.0501,-9.0343,-9.0816,-9.0642,-9.068,-9.0779,-9.0833,-9.0875,-9.086,-9.0162,0,0,0,0,0,-8.9307,-8.9573,-8.9523,-8.9573,-8.9821,-9.0034,-9.0065,-9.004,-8.9917,-9.0044,-9.0074,-8.9984,-9.0407,-9.0267,-9.0316,-9.0493,-9.0916,-9.0944,-9.0969,-9.1172,-9.1229,-9.1276,0,0,0,0,0,0,-8.9326,-8.9389,-8.9516,-8.9606,-8.9661,-9.0024,-8.9811,-8.9811,-8.9903,-8.9883,-8.9981,-8.9987,-8.9968,-9.0239,-9.0285,-9.0453,-9.0147,-9.0927,-9.095,-9.0971,-9.1192,-9.1238,-9.1277,0,0,0,0,0,-8.9342,-8.9392,-8.9795,-8.9602,-8.965,-8.968,-8.9801,-8.9799,-8.987,-8.9916,-8.9919,-8.9842,-8.9973,-9.001,-9.0266,-9.0433,-9.0115,-9.0132,-9.0942,-9.096,-9.0976,-9.1214,0,0,0,0,0,0,-8.9353,-8.9391,-8.9804,-8.9817,-8.9499,-8.9658,-8.9683,-8.9789,-8.9896,-8.9903,-8.9774,-8.9757,-8.9981,-9.0007,-9.0036,-9.0428,-9.0089,-9.0107,-9.0117,-9.0956,-9.097,-9.0983,0,0,0,0,0,0,-8.9364,-8.9404,-8.9811,-8.9683,-8.9682,-8.964,-8.9661,-8.9874,-8.9899,-8.9748,-8.9737,-8.9765,-8.9937,-9.0007,-9.0029,-9.0363,-9.0069,-9.0086,-9.0098,-9.0105,-9.0967,-9.0979,0,0,0,0,0,0,-8.938,-8.9414,-8.9679,-8.9679,-8.9677,-8.9827,-8.9827,-9.0081,-8.9792,-8.9745,-8.9765,-8.9753,-8.994,-8.9961,-9.0025,-9.035,-9.036,-9.007,-9.0081,-9.0089,-9.0095,0,0,0,0,0,0,0,-8.9393,-8.9173,-8.9724,-8.9675,-8.9673,-8.9943,-8.9947,-8.995,-8.9789,-8.9778,-8.9768,-8.9758,-8.9975,-8.9993,-9.0011,-9.034,0,0,-9.0068,-9.0076,0,0,0,0,0,0,0,0,-8.9158,-8.9169,-8.9724,-8.9727,-8.973,-8.9944,-8.9947,-8.995,-8.9787,-8.9779,-8.977,-8.9762,-8.998,-8.9994,-9.0009,0,0,0,0,0,0,0,0,0,0,0,0,0,0,0,-8.9725,-8.9727,0,-8.9944,-8.9946,-8.9949,-8.9786,-8.9779,-8.9772,-8.9765,-8.9984,-8.9996,-9.0008,0,0,0,0,0,0,0,0,0,0,0,0,0,0,0,0,0,0,0,0,0,0,0,0,0,0,0,0,0,0,0,0,0,0,0,0,0,0,0,0,0,0,0,0,0,0,0,0,0,0,0,0,0,0,0,0,0,0,0,0,0,0,0,0,0,0,0,0,0]}]]]